GEFSMA_con_probscp_222.txt.gz
Probability
0 0 0 0 0 0 0 0 0 0 0 0 0 0 0 0 0 0 0 0 0 0 0 0 0 0 0 0 0 0 0 0 0 0 0 0 0 0 0 0 0 0 0
0 0 0 0 0 0 0 0 0 0 0 0 0 0 0 0 0 0 0 0 0 0 0 0 0 0 0 0 0 0 0 0 0 0 0 0 0 0 0 0 0 0 0
0 0 0 0 0 0 0 0 0 0 0 0 0 0 0 0 1 1 1 0 0 0 0 0 1 0 0 0 0 0 0 0 0 0 0 0 0 0 0 0 0 0 0
0 0 0 0 0 0 0 0 0 0 0 0 0 0 1 2 2 2 2 1 0 0 0 0 1 1 1 0 0 0 0 1 1 1 0 0 0 0 0 0 0 0 0
0 0 0 0 0 0 0 0 0 0 0 0 0 0 2 3 2 2 2 2 0 0 0 0 1 3 2 1 1 1 1 1 2 1 0 0 0 0 0 0 0 0 0
0 0 0 1 1 0 0 0 0 0 0 0 0 0 1 1 1 1 2 2 0 0 0 1 2 3 2 1 1 1 1 1 1 1 0 0 0 0 0 0 0 0 0
2 2 2 2 2 1 1 2 1 1 0 0 0 0 0 0 1 2 3 2 1 0 1 2 3 3 2 1 1 0 0 0 0 0 0 0 0 0 0 0 0 0 0
4 3 3 4 4 4 5 6 5 3 1 0 0 0 0 0 1 2 4 5 4 3 3 4 6 6 5 3 1 0 0 0 0 1 1 0 0 0 0 0 0 0 0
7 6 6 6 6 7 9 10 10 7 4 2 1 1 1 1 1 2 5 7 8 8 7 6 8 9 8 5 2 0 0 0 1 1 0 0 0 0 0 0 0 0 0
9 9 9 8 7 7 8 9 9 9 8 5 3 3 3 3 1 1 3 6 9 10 9 7 6 8 8 6 4 1 0 0 0 0 0 0 0 0 1 0 0 0 0
11 11 11 10 8 7 7 6 6 8 9 9 8 6 5 5 3 2 1 3 6 9 9 7 5 6 7 7 5 2 0 0 0 0 0 0 0 0 0 0 0 0 0
14 13 12 10 8 8 8 6 6 6 9 11 12 11 10 10 9 6 4 4 5 7 8 6 6 6 7 7 6 2 0 0 0 0 0 0 0 0 0 0 0 0 0
15 15 14 12 9 8 8 8 8 7 10 12 13 13 13 13 13 11 8 5 4 5 4 5 5 6 7 8 7 4 1 0 0 0 0 0 0 0 0 0 0 0 0
14 15 17 15 11 9 9 9 9 9 10 12 12 11 11 12 13 12 8 5 3 2 2 3 6 6 7 7 6 3 1 0 0 0 0 0 0 0 0 0 0 0 0
16 17 18 17 13 11 11 9 8 8 10 11 11 10 10 11 11 9 6 5 4 2 2 4 5 6 6 6 4 2 2 1 0 0 0 0 0 0 0 0 0 0 0
21 19 18 16 14 13 12 10 8 8 10 11 11 11 12 13 12 8 6 7 8 6 4 4 5 6 6 4 2 2 2 1 0 0 0 0 0 0 0 0 0 0 0
22 20 18 17 14 13 12 11 9 9 10 11 10 11 12 12 11 9 8 9 11 10 7 5 5 6 6 4 2 2 2 2 1 0 0 0 0 0 0 0 0 0 0
24 22 20 18 16 14 13 11 9 10 11 10 10 10 10 9 8 8 8 9 10 10 8 6 5 6 6 5 4 2 2 2 2 0 0 0 0 0 0 0 0 0 0
27 24 22 20 18 15 13 10 8 9 10 10 10 9 7 5 5 5 5 6 7 7 7 7 6 6 6 6 5 3 2 2 1 0 0 0 0 0 0 0 0 0 0
32 29 26 23 18 13 10 8 7 8 8 9 8 8 6 5 4 4 4 4 4 5 6 6 6 6 6 6 5 4 2 2 1 0 0 0 0 0 0 0 0 0 0
38 35 30 24 16 10 7 6 6 7 8 8 8 7 6 4 3 2 2 2 3 3 4 4 4 4 4 5 5 3 3 3 2 1 1 0 0 0 0 0 0 0 0
40 38 33 25 15 8 4 4 5 7 8 9 8 7 5 3 1 1 1 1 2 3 3 3 3 3 3 3 3 2 2 3 3 3 2 1 1 0 0 0 0 0 0
38 35 31 26 17 9 4 2 4 6 7 8 8 6 4 2 0 0 0 0 2 2 2 1 2 3 2 2 2 2 1 2 2 3 3 3 2 2 2 1 0 0 0
34 31 28 26 20 11 4 2 3 5 7 7 7 6 5 3 1 0 0 0 1 2 1 1 1 2 2 2 2 1 0 0 1 2 3 3 3 3 3 2 1 0 0
31 28 26 25 21 12 5 2 2 5 6 6 6 6 6 4 1 0 0 0 0 1 1 0 0 1 1 1 1 0 0 0 0 1 2 2 3 3 3 3 1 1 0
29 27 24 23 20 12 5 1 2 5 6 6 6 6 5 3 1 0 0 0 0 0 0 0 0 0 0 0 0 0 0 0 0 0 1 1 2 3 3 3 2 2 1

GEFSMA_con_probscp_228.txt.gz
Probability
0 0 0 0 0 0 0 0 0 0 0 0 0 0 0 0 0 0 0 0 0 0 1 0 0 0 0 0 0 0 0 0 0 0 0 0 0 0 0 0 0 0 0
0 0 0 0 0 0 0 0 0 0 0 0 0 0 0 0 0 0 0 0 0 0 1 1 0 0 0 0 0 0 0 0 0 0 0 0 0 0 0 0 0 0 0
0 0 0 0 0 0 0 0 0 0 0 0 0 0 0 0 0 0 0 0 0 0 1 1 1 1 0 0 0 0 0 0 0 0 0 0 0 0 0 1 0 0 0
0 0 0 0 0 0 0 0 0 0 0 0 0 0 0 0 0 0 0 0 0 0 0 1 2 1 0 0 0 0 0 0 0 0 0 0 0 0 0 0 0 0 0
0 0 0 0 0 0 0 0 0 0 0 0 0 0 0 0 0 0 0 0 0 0 0 1 1 0 1 2 2 2 1 1 0 0 0 0 0 0 0 0 0 0 0
0 0 0 0 0 0 0 0 0 0 0 0 0 0 0 0 0 0 0 0 0 0 0 0 0 0 1 4 5 4 3 2 1 0 0 0 0 0 0 0 0 0 0
0 0 0 0 0 0 0 0 0 0 0 0 0 0 0 0 0 0 0 0 0 0 0 0 0 0 1 3 5 5 4 3 1 0 0 0 0 0 0 0 0 0 0
1 0 0 0 0 0 0 0 0 0 0 0 0 0 0 0 0 0 0 0 0 0 0 0 0 0 0 1 2 4 3 2 1 0 0 0 0 0 0 0 0 0 0
2 1 0 0 0 0 0 0 0 0 0 0 0 0 0 0 0 0 0 0 0 0 0 0 0 1 0 0 1 2 2 1 1 0 0 0 0 0 0 0 0 0 0
2 1 0 0 0 0 0 0 0 0 0 0 0 0 0 0 0 0 0 0 0 0 0 0 0 0 0 0 0 1 1 2 3 1 0 0 0 0 0 0 0 0 0
2 2 1 2 2 1 1 1 0 0 0 0 0 0 0 0 0 0 0 0 0 0 1 1 1 1 1 1 0 0 1 2 2 2 0 0 0 0 0 0 0 0 0
4 4 5 5 5 4 3 3 1 0 0 0 0 1 1 1 1 1 1 0 1 1 2 2 2 2 2 2 1 0 1 1 1 1 0 0 0 0 0 0 0 0 0
6 6 6 5 5 6 6 5 3 1 1 1 1 2 2 2 2 2 2 1 2 2 3 2 1 2 3 3 2 0 0 0 0 0 0 0 0 0 0 0 0 0 0
5 4 3 2 3 6 7 6 4 3 2 2 2 3 4 3 3 3 3 2 2 2 2 2 1 2 3 3 1 0 0 0 0 0 0 0 0 0 0 0 0 0 0
4 3 2 2 3 6 8 7 5 4 3 3 3 4 4 4 3 3 3 3 2 2 2 2 2 2 3 2 1 0 0 0 0 0 0 0 0 0 0 0 0 0 0
7 6 5 4 5 7 8 7 6 4 3 3 3 3 4 3 2 2 2 2 2 2 2 3 3 2 2 2 1 0 0 0 0 0 0 0 0 0 0 0 0 0 0
10 9 7 6 5 5 5 6 5 4 3 3 2 1 1 2 1 1 1 0 1 2 3 3 3 2 1 1 0 0 0 0 0 0 0 0 0 0 0 0 0 0 0
7 7 5 4 4 3 3 4 4 3 3 3 2 1 0 1 1 0 0 0 0 1 2 3 3 2 1 0 0 0 0 0 0 0 0 0 0 0 0 0 0 0 0
4 4 3 3 3 3 3 3 3 3 3 3 2 1 0 1 1 0 0 0 0 1 1 1 2 2 1 1 0 0 0 0 0 0 0 0 0 0 0 0 0 0 0
6 5 4 3 3 3 3 3 3 3 3 3 2 1 0 0 0 0 0 0 0 0 0 0 1 1 0 0 0 0 0 0 0 0 0 0 0 0 0 0 0 0 0
10 8 5 3 3 3 3 3 3 3 3 2 1 0 0 0 0 0 0 0 0 0 0 0 0 0 0 0 0 0 0 0 0 0 0 0 0 0 0 0 0 0 0
13 10 6 4 4 3 2 2 2 2 2 1 0 0 0 0 0 0 0 0 0 0 0 0 0 0 0 0 0 0 0 0 0 0 0 0 0 0 0 0 0 0 0
17 13 8 5 4 3 1 0 0 1 1 0 0 0 0 0 0 0 0 0 0 0 0 0 0 0 0 0 0 0 0 0 0 0 0 0 0 0 0 0 0 0 0
22 18 11 6 4 3 1 0 0 0 0 0 0 0 0 0 0 0 0 0 0 0 0 0 0 0 0 0 0 0 0 0 0 0 0 0 0 0 0 0 0 0 0
25 22 16 10 6 3 2 0 0 0 0 0 0 0 0 0 0 0 0 0 0 0 0 0 0 0 0 0 0 0 0 0 0 0 0 0 0 0 0 0 0 0 0
25 24 21 15 9 4 1 0 0 0 0 0 0 0 0 0 0 0 0 0 0 0 0 0 0 0 0 0 0 0 0 0 0 0 0 0 0 0 0 0 0 0 0

GEFSMA_con_probscp_234.txt.gz
Probability
0 0 0 0 0 0 0 0 0 0 0 0 0 0 0 0 0 0 0 0 0 0 0 0 0 0 0 0 0 0 0 0 0 0 0 0 0 0 0 0 0 0 0
0 0 0 0 0 0 0 0 0 0 0 0 0 0 0 0 0 0 0 0 0 0 0 0 0 0 0 0 0 0 0 0 0 0 0 0 0 0 0 0 0 0 0
0 0 0 0 0 0 0 0 0 0 0 0 0 0 0 0 0 0 0 0 0 0 0 0 1 0 0 0 0 0 0 0 0 0 0 0 0 0 0 0 0 0 0
0 0 0 0 0 0 0 0 0 0 0 0 0 0 0 0 0 0 0 0 0 0 0 0 0 0 0 0 0 0 1 0 0 0 0 0 0 0 0 0 0 0 0
0 0 0 0 0 0 0 0 0 0 0 0 0 0 0 0 0 0 0 0 0 0 0 0 0 0 0 0 0 1 1 0 0 0 0 0 0 0 0 0 0 0 0
0 0 0 0 0 0 0 0 0 0 0 0 0 0 0 0 0 0 0 0 0 0 0 0 0 0 0 0 0 1 1 0 1 1 0 0 0 0 0 0 0 0 0
0 0 0 0 0 0 0 0 0 0 0 0 0 0 0 0 0 0 0 0 0 0 0 0 0 0 0 0 0 0 1 1 1 1 1 1 0 0 0 0 0 0 0
0 0 0 0 0 0 0 0 0 0 0 0 0 0 0 0 0 0 0 0 0 0 0 0 0 0 0 0 0 0 1 1 1 1 2 1 0 0 0 0 0 0 0
0 0 0 0 0 0 0 0 0 0 0 0 0 0 0 0 0 0 0 0 0 0 0 0 0 0 0 0 0 0 0 0 0 1 2 2 1 0 0 0 0 0 0
0 0 0 0 0 0 0 0 0 0 0 0 0 0 0 0 1 1 0 0 0 0 1 1 1 1 0 0 0 0 0 0 0 1 2 3 2 1 0 0 0 0 0
0 0 0 0 0 0 0 0 0 0 0 0 1 1 1 1 2 2 1 0 0 1 2 2 2 2 1 1 0 1 1 1 1 1 2 3 2 1 0 0 0 0 0
0 0 0 0 0 0 0 0 0 1 1 1 2 2 2 3 3 3 2 1 1 1 2 3 3 3 3 2 2 2 3 2 1 0 1 2 1 0 0 0 0 0 0
1 0 0 0 0 0 1 1 2 3 4 4 4 4 3 3 3 3 2 2 2 2 2 3 3 3 3 3 3 3 3 2 1 0 0 0 0 0 0 0 0 0 0
2 1 0 0 0 1 3 3 3 4 5 5 5 4 4 4 4 4 3 2 2 1 2 2 3 3 3 3 3 3 3 2 1 0 0 0 0 0 0 0 0 0 0
4 3 1 0 0 1 2 3 2 2 3 4 4 4 4 5 6 5 4 3 2 1 1 2 2 2 2 2 2 3 3 2 1 0 0 0 0 0 0 0 0 0 0
6 4 1 0 0 0 1 1 1 1 1 3 3 3 4 5 5 4 3 2 1 0 0 1 1 1 1 1 1 1 2 2 1 0 0 0 0 0 0 0 0 0 0
6 5 2 0 0 1 1 1 2 2 3 3 3 3 3 3 3 2 1 0 0 0 0 0 0 0 0 0 0 0 1 1 0 0 0 0 0 0 0 0 0 0 0
6 5 3 2 1 2 2 3 3 3 3 3 3 3 3 2 1 1 0 0 0 0 0 0 0 0 0 0 0 0 0 0 0 0 0 0 0 0 0 0 0 0 0
5 5 4 3 3 3 3 3 3 3 3 3 3 3 3 2 1 0 1 1 1 0 0 0 0 0 0 0 0 0 0 0 0 0 0 0 0 0 0 0 0 0 0
4 5 5 4 4 3 3 3 3 3 3 2 3 3 3 2 1 1 2 2 2 1 0 0 0 0 0 0 0 0 0 0 0 0 0 0 0 0 0 0 0 0 0
4 5 6 6 4 3 3 3 3 3 3 2 3 3 3 3 1 1 2 2 2 1 0 0 0 0 0 0 0 0 0 0 0 0 0 0 0 0 0 0 0 0 0
7 8 8 8 5 3 2 3 3 3 3 3 3 3 3 3 2 1 1 1 1 0 0 0 0 0 0 0 0 0 0 0 0 0 0 0 0 0 0 0 0 0 0
12 11 11 9 6 3 2 2 2 3 3 3 3 3 3 2 1 0 0 0 0 0 0 0 0 0 0 0 0 0 0 0 0 0 0 0 0 0 0 0 0 0 0
14 13 13 12 8 5 3 2 1 1 2 3 3 3 2 1 0 0 0 0 0 0 0 0 0 0 0 0 0 0 0 0 0 0 0 0 0 0 0 0 0 0 0
13 14 14 13 10 7 4 1 0 1 1 1 1 2 2 2 1 0 0 0 0 0 0 0 0 0 0 0 0 0 0 0 0 0 0 0 0 0 0 0 0 0 0
11 12 14 13 10 8 5 1 0 0 1 0 1 2 2 2 1 0 0 0 0 0 0 0 0 0 0 0 0 0 0 0 0 0 0 0 0 0 0 0 0 0 0

GEFSMA_con_probscp_240.txt.gz
Probability
0 1 2 3 3 3 3 2 1 0 0 0 0 0 0 0 0 0 0 0 0 0 0 0 0 0 0 0 0 0 0 0 0 0 0 0 0 0 0 0 0 0 0
0 0 1 3 3 3 3 2 1 0 0 0 0 0 0 0 0 0 0 0 0 0 0 0 0 0 0 0 0 0 0 0 0 0 0 0 0 0 0 0 0 0 0
0 0 1 2 2 2 1 1 0 0 0 0 0 0 0 0 0 0 0 1 0 0 0 0 0 0 0 0 0 0 0 0 0 0 0 0 0 0 0 0 0 0 0
0 0 0 1 1 1 0 0 0 0 0 0 0 0 0 1 0 0 0 0 0 0 0 1 0 0 0 0 0 0 0 0 0 0 0 0 1 1 1 0 0 0 0
0 0 0 0 0 0 0 0 0 0 0 0 0 0 0 0 0 0 0 0 0 0 0 1 1 1 0 0 0 0 1 2 2 1 1 1 1 2 1 0 0 0 0
0 0 0 0 0 0 0 0 0 0 0 0 0 0 0 0 0 0 0 0 0 0 0 1 2 1 1 1 1 1 1 2 3 3 3 3 3 3 2 1 0 0 0
0 0 0 0 0 0 1 1 1 0 0 0 0 0 0 0 0 1 1 0 0 0 0 1 1 1 1 1 2 2 1 1 2 3 4 5 5 4 3 1 0 0 0
0 0 0 0 0 0 1 2 2 1 0 0 0 0 0 0 0 0 1 1 0 0 0 0 1 1 2 3 4 4 3 2 1 1 2 4 4 4 3 2 1 0 0
0 0 0 0 0 0 1 2 3 3 3 2 2 2 1 0 0 0 0 1 1 1 0 1 2 3 4 5 6 6 6 4 2 1 2 4 4 3 2 2 1 0 0
0 0 0 1 1 1 1 2 4 6 7 7 6 6 4 3 3 2 1 1 2 2 2 2 4 5 6 7 7 7 6 4 2 1 2 4 4 2 1 1 1 1 1
1 1 1 2 2 2 2 3 6 9 11 12 10 9 9 8 7 5 2 1 1 2 2 2 4 5 6 6 7 6 5 3 1 0 1 3 3 2 0 0 1 1 0
4 4 4 4 5 4 4 6 8 10 12 13 13 12 11 10 9 7 5 2 0 1 1 1 2 3 4 5 5 4 4 3 1 0 0 1 1 1 0 0 1 1 0
7 9 9 9 8 7 7 8 9 9 10 11 12 12 11 10 9 9 7 3 0 0 0 0 1 2 1 2 3 3 2 2 1 0 0 0 0 0 0 0 1 1 1
9 12 14 13 11 10 9 9 9 9 9 10 10 11 10 10 9 9 9 6 2 0 0 0 0 0 0 0 1 1 1 1 0 0 0 0 0 0 0 0 1 1 0
14 17 17 14 11 11 11 9 8 8 10 10 10 10 11 11 11 10 10 8 5 3 1 1 1 0 0 0 0 0 0 0 0 0 0 0 0 0 0 0 0 0 0
20 22 21 16 13 12 12 11 9 9 11 11 11 10 11 12 12 11 11 10 9 7 4 3 2 1 1 1 0 0 0 0 0 0 0 0 0 0 0 0 0 0 0
25 25 24 21 17 14 13 12 10 9 10 10 10 10 10 11 11 11 11 10 11 10 8 4 2 1 2 2 1 1 0 0 0 0 0 0 0 0 0 0 0 0 0
28 27 26 25 20 16 15 13 10 9 10 10 10 10 10 9 9 10 10 11 12 12 10 6 2 1 2 3 3 2 1 0 0 0 0 0 0 0 0 0 0 0 0
28 28 27 25 22 19 17 15 13 12 11 11 11 10 9 8 8 8 9 11 11 11 10 7 2 1 2 3 3 2 1 0 0 0 0 0 0 0 0 0 0 0 0
28 29 30 27 24 22 21 19 18 17 15 14 12 11 9 8 8 7 8 9 9 8 7 6 3 1 1 2 2 1 0 0 0 0 0 0 0 0 0 0 0 0 0
31 33 34 31 27 25 23 22 21 20 18 16 14 13 12 10 7 6 6 6 7 6 5 5 5 3 2 2 2 0 0 0 0 0 0 0 0 1 0 0 0 0 0
37 37 36 34 30 27 22 17 17 19 20 19 18 16 15 12 8 6 4 3 4 4 5 5 6 6 5 4 2 1 0 0 0 0 0 0 0 1 1 0 0 0 0
42 39 37 34 32 28 19 11 9 14 20 23 21 19 18 15 12 10 7 4 3 3 3 5 7 9 9 7 5 3 1 0 0 0 0 0 0 0 1 0 0 0 0
42 39 36 34 33 26 15 6 5 12 20 24 24 23 22 20 16 13 12 10 8 5 3 3 5 7 7 7 6 4 2 0 0 0 0 0 0 0 0 0 0 0 0
41 37 34 33 32 25 13 4 4 11 19 24 25 25 22 19 14 12 13 15 13 9 6 4 3 3 3 3 3 3 2 0 0 0 0 0 0 0 0 0 0 0 0
39 36 32 32 31 25 13 4 4 12 19 23 25 24 18 13 11 10 12 16 15 12 8 6 3 1 0 0 1 2 2 1 0 1 1 1 0 0 0 0 0 0 0

GEFSMA_con_probscp_246.txt.gz
Probability
0 1 2 4 3 3 2 1 1 2 2 2 1 0 0 0 0 0 1 2 4 5 7 7 5 2 0 0 0 0 0 0 0 0 0 0 0 0 0 0 0 0 0
0 0 1 2 2 3 3 1 0 1 1 1 0 0 0 0 0 1 1 2 4 6 7 7 5 3 1 1 0 0 0 0 0 0 0 0 0 0 0 0 0 0 0
0 0 0 1 2 2 3 2 1 0 0 0 0 0 1 2 2 3 3 3 4 5 6 6 4 3 3 2 1 1 0 0 0 1 0 0 0 0 0 0 0 0 0
1 1 0 0 1 1 2 2 1 0 0 0 0 0 2 4 5 5 5 5 5 5 6 6 5 5 5 6 4 3 1 1 1 1 0 0 0 0 0 0 1 1 1
1 1 1 1 0 1 2 2 2 2 2 1 0 0 2 4 6 6 6 7 7 7 8 9 8 7 8 9 7 5 4 3 3 2 1 1 1 0 0 1 2 2 2
2 1 2 2 2 3 4 5 5 5 5 4 2 1 2 5 7 8 8 8 8 8 10 12 11 9 8 8 8 8 8 7 6 4 3 3 2 1 0 1 2 2 2
2 1 2 3 3 4 7 9 9 7 6 6 5 3 4 7 9 10 10 9 7 7 10 13 12 9 6 6 8 9 10 10 9 7 6 5 4 2 1 0 1 1 1
3 3 3 3 4 6 10 13 12 10 8 7 7 7 7 8 9 10 12 11 8 8 9 11 12 9 6 6 6 7 8 10 10 9 8 7 4 2 1 0 0 0 0
8 7 7 5 4 6 11 14 15 15 14 11 11 12 11 10 9 9 11 11 9 8 7 7 8 8 7 6 6 4 5 6 7 8 8 7 5 2 1 0 0 0 0
15 14 13 9 6 6 9 12 16 19 19 16 15 16 15 14 12 10 9 9 8 7 4 3 5 6 6 6 6 4 4 4 4 5 5 6 5 2 1 0 0 0 0
22 21 18 16 12 10 10 12 17 22 22 19 17 16 17 17 14 11 8 7 7 5 3 4 4 4 4 4 5 4 3 2 2 2 3 4 4 3 1 0 0 1 1
27 25 24 23 21 19 17 18 20 22 22 19 16 16 17 17 14 10 8 7 7 6 6 6 5 2 2 3 4 3 2 1 1 1 1 2 3 2 1 0 0 1 2
29 30 30 30 29 24 21 21 23 22 19 16 15 15 16 15 12 9 7 7 6 6 9 9 6 4 3 4 4 3 1 0 0 0 0 1 1 1 1 0 0 1 1
29 33 37 36 33 25 21 21 22 19 17 15 13 14 15 14 11 8 8 9 7 7 9 10 9 8 7 6 5 3 3 2 0 0 0 0 0 0 0 0 0 0 0
29 35 41 40 36 28 24 23 20 17 17 16 14 14 15 14 11 9 10 12 11 9 8 9 11 10 8 6 4 4 5 3 1 0 0 0 0 0 0 0 0 0 0
34 37 41 41 38 33 29 26 22 20 19 17 14 14 15 15 13 9 9 12 14 11 9 9 10 10 7 4 3 5 5 3 1 0 0 0 0 0 0 0 0 0 0
39 40 41 42 41 37 33 30 26 25 23 19 17 17 17 16 14 11 9 12 14 12 10 11 11 9 7 3 3 4 4 3 2 1 0 0 0 0 0 0 0 0 0
44 43 43 44 44 43 40 37 32 30 28 25 23 23 21 19 17 15 14 14 13 12 12 13 13 10 7 4 3 3 4 4 3 1 0 0 0 0 0 0 0 0 0
47 47 46 46 46 46 45 43 39 36 34 32 30 29 27 23 22 21 20 17 13 11 14 16 15 12 8 5 4 4 5 4 3 2 1 0 0 0 0 0 0 0 0
46 46 46 46 46 47 46 44 42 39 38 36 35 34 30 27 25 24 23 20 16 13 14 15 14 12 9 6 4 4 4 4 3 3 2 1 0 0 0 0 0 0 0
47 46 44 42 43 43 42 42 41 40 39 39 37 35 31 28 24 21 18 18 16 15 15 14 14 13 10 8 5 3 2 3 3 3 3 2 1 1 1 0 0 0 0
53 50 46 42 40 35 32 33 35 38 40 39 37 34 30 25 21 16 11 9 10 12 12 11 11 12 12 10 6 3 2 3 3 4 3 2 1 2 2 1 0 0 0
59 56 53 50 43 32 24 21 25 32 39 39 35 32 29 24 21 17 12 9 8 8 7 6 7 10 13 12 9 6 4 4 4 5 5 4 3 2 2 1 0 0 0
64 62 60 58 50 34 20 13 17 26 34 35 32 30 30 26 21 19 17 15 13 11 7 4 5 7 9 11 11 9 8 7 6 6 6 6 5 4 3 2 0 0 0
64 64 63 60 51 36 19 10 12 21 27 26 25 26 28 26 21 17 18 18 17 15 10 6 4 4 5 6 8 9 10 8 7 7 7 7 6 5 5 3 1 0 0
61 62 62 57 50 36 19 8 9 17 22 22 21 22 24 23 18 16 17 18 17 17 14 7 4 3 3 3 4 6 9 8 7 7 8 8 7 6 6 4 2 0 0

GEFSMA_con_probscp_252.txt.gz
Probability
0 0 0 0 0 0 0 0 0 0 0 0 0 0 0 0 0 0 1 3 7 9 8 6 4 1 0 0 0 0 0 0 0 0 0 0 0 0 0 0 0 0 0
0 0 0 0 0 0 0 0 0 0 0 0 0 0 0 0 0 0 0 2 6 8 8 6 4 2 1 0 0 0 0 0 0 0 0 0 0 0 0 0 0 0 0
0 0 0 0 0 0 0 0 0 0 0 0 0 0 0 0 0 0 0 1 3 5 6 6 6 4 2 1 1 1 1 1 1 1 1 1 0 0 0 0 0 0 0
0 0 0 0 0 0 0 0 0 0 0 0 0 0 0 0 0 0 0 0 0 2 3 5 6 5 4 3 2 2 2 2 2 2 2 2 1 1 0 0 0 0 0
1 0 0 0 0 0 0 0 0 0 0 0 0 0 0 0 0 0 0 0 0 0 1 2 4 4 4 3 4 4 3 3 3 3 3 3 3 2 1 0 0 0 0
2 1 0 0 0 0 0 1 0 0 0 0 0 0 0 0 0 0 0 0 0 0 0 0 1 2 2 3 4 4 4 3 4 4 4 3 3 3 2 1 0 0 0
3 2 1 0 0 0 0 1 0 0 0 0 0 0 0 0 0 0 0 0 0 0 1 1 1 1 1 2 3 4 3 4 4 5 4 4 3 3 3 1 0 0 0
3 3 3 2 1 1 1 1 1 0 1 0 0 0 0 0 0 0 0 0 0 0 1 1 2 2 1 1 2 3 3 3 4 4 4 4 4 4 4 3 1 1 0
4 4 4 3 2 2 2 2 1 0 0 0 0 0 0 0 0 0 0 0 0 0 0 1 2 2 2 2 2 3 3 3 3 3 3 4 4 5 4 3 3 2 1
6 6 5 4 3 3 4 3 2 1 1 1 0 0 0 0 0 0 0 0 0 0 0 1 1 2 2 2 2 3 3 3 3 3 3 3 4 4 3 3 3 3 3
6 6 5 4 4 4 3 3 3 2 2 2 2 1 1 2 1 0 0 0 0 0 0 1 1 1 2 1 1 2 3 3 3 3 3 3 3 3 3 3 3 3 2
6 6 5 4 4 5 4 4 4 4 4 4 4 4 3 3 2 1 0 0 0 0 0 0 0 1 1 1 1 1 2 3 3 3 3 3 3 3 3 3 3 2 2
7 7 6 6 6 7 7 6 6 6 6 6 6 6 6 5 4 2 1 0 0 0 0 0 0 0 1 1 2 1 1 2 2 2 1 1 2 2 2 2 2 2 2
7 8 8 9 9 9 9 9 9 8 8 7 7 7 7 7 5 3 2 1 0 0 0 0 0 0 1 2 2 1 1 1 1 1 0 0 1 1 1 1 1 2 2
8 9 11 12 11 10 10 10 9 9 9 9 9 8 8 8 7 4 3 2 1 0 0 0 0 1 1 2 1 1 0 0 0 0 0 0 0 0 0 0 0 1 1
11 13 16 15 14 13 12 11 10 10 10 10 10 9 9 9 8 5 3 3 1 1 0 0 0 1 1 1 0 0 0 0 0 0 0 0 0 0 0 0 0 0 0
15 17 19 19 17 16 15 14 13 11 11 10 10 10 9 9 8 6 4 4 3 2 1 1 0 1 1 0 0 0 0 0 0 0 0 0 0 0 0 0 0 0 0
20 21 21 20 19 17 17 18 16 14 13 11 10 9 8 7 7 6 6 5 4 3 2 1 0 0 0 0 0 0 0 0 0 0 0 0 0 0 0 0 0 0 0
25 26 25 23 21 19 18 19 19 17 15 13 11 10 8 6 6 6 6 5 5 4 2 1 0 0 0 0 0 0 0 0 0 0 0 0 0 0 0 0 0 0 0
29 28 25 24 23 21 20 20 20 18 15 14 12 10 7 6 6 5 5 5 4 3 1 0 0 0 0 0 0 0 0 0 0 0 0 0 0 0 0 0 0 0 0
28 25 22 21 21 21 19 17 17 17 16 15 13 10 7 6 6 6 5 6 5 4 2 1 0 0 0 0 1 1 0 0 0 0 0 0 0 0 0 0 0 0 0
26 23 21 21 20 19 15 11 11 13 14 14 13 10 8 8 8 7 6 6 6 5 4 2 1 1 1 1 2 2 2 2 1 1 0 1 1 0 0 0 0 0 0
24 23 23 22 20 17 12 8 7 9 11 11 11 10 9 8 7 6 5 6 5 5 4 3 3 3 3 3 3 3 3 3 2 2 1 2 2 1 0 0 0 0 0
24 23 23 22 19 14 9 6 6 7 8 9 8 8 8 8 6 4 4 6 5 4 3 4 4 4 3 3 3 3 3 3 3 2 2 3 2 1 0 0 0 0 0
24 24 23 21 18 13 8 5 5 6 7 7 6 5 5 7 6 3 2 4 5 4 4 4 4 3 2 1 1 2 3 3 2 1 1 2 1 0 0 0 0 0 0
24 25 24 22 20 15 9 5 4 6 6 6 5 4 4 5 6 3 1 2 2 2 4 4 3 2 1 0 0 1 2 3 2 1 0 1 0 0 0 0 0 0 0